This demonstration page uses our WeatherBlox Daily Observations layout. Learn more.

Hourly Observations for October 6, 2019

Temp ( °F °C ) Dew Point ( °F °C ) Humidity (%) Winds ( mph kmh ) Pressure ( in mb ) Visibility ( mi km ) Precip ( " mm )
12:54 am 00:54 Clear 46 7.8 42 5.6 86 86 Calm 30.09 1019 10 16.09344 0 0
1:54 am 01:54 Clear 44 6.7 40 4.4 85 85 Calm 30.06 1018 10 16.09344 0 0
2:54 am 02:54 Clear 43 6.1 41 5 93 93 N 5 7 30.06 1018 10 16.09344 0 0
3:54 am 03:54 Clear 45 7.2 40 4.4 83 83 Calm 30.06 1018 10 16.09344 0 0
4:54 am 04:54 Clear 45 7.2 41 5 86 86 Calm 30.09 1019 10 16.09344 0 0
5:54 am 05:54 Clear 45 7.2 41 5 86 86 S 3 6 30.12 1020 10 16.09344 0 0
6:54 am 06:54 Clear 47 8.3 42 5.6 83 83 N 5 7 30.15 1021 10 16.09344 0 0
7:54 am 07:54 Sunny 47 8.3 42 5.6 83 83 Calm 30.18 1022 10 16.09344 0 0
8:54 am 08:54 Sunny 49 9.4 45 7.2 86 86 Calm 30.18 1022 10 16.09344 0 0
9:54 am 09:54 Partly Cloudy 52 11.1 44 6.7 75 75 Calm 30.24 1024 10 16.09344 0 0
10:54 am 10:54 Cloudy 57 13.9 44 6.7 62 62 WNW 3 6 30.24 1024 10 16.09344 0 0
11:54 am 11:54 Mostly Cloudy 60 15.6 44 6.7 56 56 Calm 30.24 1024 10 16.09344 0 0
12:54 pm 12:54 Cloudy 61 16.1 39 3.9 44 44 Calm 30.24 1024 10 16.09344 0 0
1:54 pm 13:54 Sunny 63 17.2 41 5 45 45 Calm 30.24 1024 10 16.09344 0 0
2:54 pm 14:54 Mostly Sunny 67 19.4 40 4.4 37 37 WNW 9 15 30.21 1023 10 16.09344 0 0
3:54 pm 15:54 Sunny 67 19.4 39 3.9 36 36 WSW 13 20 30.18 1022 10 16.09344 0 0
4:54 pm 16:54 Sunny 69 20.6 35 1.7 29 29 WNW 13 20 30.18 1022 10 16.09344 0 0
5:54 pm 17:54 Sunny 67 19.4 36 2.2 32 32 WNW 8 13 30.18 1022 10 16.09344 0 0
6:54 pm 18:54 Sunny 63 17.2 40 4.4 43 43 WNW 5 7 30.18 1022 10 16.09344 0 0
7:54 pm 19:54 Clear 56 13.3 40 4.4 55 55 Calm 30.21 1023 10 16.09344 0 0
8:54 pm 20:54 Clear 48 8.9 41 5 77 77 N 3 6 30.24 1024 10 16.09344 0 0
9:54 pm 21:54 Clear 47 8.3 41 5 80 80 Calm 30.27 1025 10 16.09344 0 0
10:54 pm 22:54 Clear 43 6.1 40 4.4 89 89 Calm 30.27 1025 10 16.09344 0 0
11:54 pm 23:54 Clear 45 7.2 42 5.6 90 90 Calm 30.27 1025 10 16.09344 0 0

Powered by AerisWeather